When you browse on this site, cookies collect data to enhance your experience and personalize the content and advertising you see.
Visit our Privacy Policy to learn more. By continuing to use the site, you agree to this use of cookies and data.
  • In Czech Republic
  • List of Countries
  • For 7 days
  • Water Temperature
  • Satellite Maps
  • Weather Map
  • Weather Widgets
  • user-avatar
    Login

    Hourly Weather Milpitas

    Today, 17 February, Sunday

    Time Temperature Precipitation Wind Pressure Humidity
    00:00 +7°C° 0 mm 1 mps 764 mmHg 82%
    01:00 +7°C° 0 mm 1 mps 764 mmHg 82%
    02:00 +7°C° 0.3 mm 1 mps 764 mmHg 84%
    03:00 +6°C° 0.3 mm 2 mps 763 mmHg 85%
    04:00 +7°C° 0.3 mm 2 mps 763 mmHg 86%
    05:00 +7°C° 0.5 mm 2 mps 762 mmHg 85%
    06:00 +7°C° 0.5 mm 3 mps 762 mmHg 83%
    07:00 +7°C° 0.5 mm 3 mps 761 mmHg 82%
    08:00 +7°C° 0 mm 4 mps 762 mmHg 74%
    09:00 +8°C° 0 mm 5 mps 762 mmHg 67%
    10:00 +8°C° 0 mm 6 mps 762 mmHg 60%
    11:00 +9°C° 0.1 mm 6 mps 762 mmHg 56%
    12:00 +9°C° 0.1 mm 6 mps 762 mmHg 52%
    13:00 +10°C° 0.1 mm 6 mps 762 mmHg 48%
    14:00 +10°C° 0.2 mm 5 mps 761 mmHg 50%
    15:00 +9°C° 0.2 mm 5 mps 761 mmHg 52%
    16:00 +10°C° 0.2 mm 4 mps 761 mmHg 54%
    17:00 +8°C° 0.1 mm 4 mps 761 mmHg 58%
    18:00 +8°C° 0.1 mm 3 mps 762 mmHg 62%
    19:00 +7°C° 0.1 mm 2 mps 762 mmHg 66%
    20:00 +6°C° 0 mm 2 mps 762 mmHg 68%
    21:00 +6°C° 0 mm 2 mps 763 mmHg 69%
    22:00 +7°C° 0 mm 1 mps 763 mmHg 71%
    23:00 +6°C° 0 mm 1 mps 763 mmHg 71%

    Tomorrow, 18 February, Monday

    Time Temperature Precipitation Wind Pressure Humidity
    00:00 +5°C° 0 mm 2 mps 764 mmHg 71%
    01:00 +5°C° 0 mm 2 mps 764 mmHg 71%
    02:00 +4°C° 0 mm 2 mps 764 mmHg 70%
    03:00 +4°C° 0 mm 2 mps 764 mmHg 69%
    04:00 +4°C° 0 mm 2 mps 764 mmHg 67%
    05:00 +3°C° 0 mm 2 mps 765 mmHg 67%
    06:00 +3°C° 0 mm 2 mps 765 mmHg 67%
    07:00 +3°C° 0 mm 2 mps 766 mmHg 66%
    08:00 +4°C° 0 mm 2 mps 766 mmHg 58%
    09:00 +6°C° 0 mm 2 mps 766 mmHg 50%
    10:00 +8°C° 0 mm 3 mps 766 mmHg 42%
    11:00 +9°C° 0 mm 3 mps 766 mmHg 40%
    12:00 +10°C° 0 mm 3 mps 766 mmHg 37%
    13:00 +12°C° 0 mm 3 mps 766 mmHg 34%
    14:00 +12°C° 0 mm 3 mps 765 mmHg 35%
    15:00 +12°C° 0 mm 3 mps 765 mmHg 36%
    16:00 +12°C° 0 mm 3 mps 765 mmHg 37%
    17:00 +10°C° 0 mm 2 mps 765 mmHg 43%
    18:00 +9°C° 0 mm 2 mps 766 mmHg 49%
    19:00 +8°C° 0 mm 1 mps 766 mmHg 55%
    20:00 +8°C° 0 mm 1 mps 766 mmHg 56%
    21:00 +7°C° 0 mm 1 mps 766 mmHg 57%
    22:00 +7°C° 0 mm 1 mps 767 mmHg 58%
    23:00 +6°C° 0 mm 1 mps 767 mmHg 56%

    Day after tomorrow, 19 February, Tuesday

    Time Temperature Precipitation Wind Pressure Humidity
    00:00 +6°C° 0 mm 1 mps 767 mmHg 55%
    01:00 +6°C° 0 mm 1 mps 767 mmHg 54%
    02:00 +5°C° 0 mm 1 mps 767 mmHg 56%
    03:00 +5°C° 0 mm 1 mps 766 mmHg 58%
    04:00 +5°C° 0 mm 1 mps 766 mmHg 61%
    05:00 +4°C° 0 mm 1 mps 766 mmHg 64%
    06:00 +4°C° 0 mm 1 mps 766 mmHg 68%
    07:00 +4°C° 0 mm 1 mps 766 mmHg 71%
    08:00 +6°C° 0 mm 1 mps 766 mmHg 62%
    09:00 +8°C° 0 mm 1 mps 767 mmHg 54%
    10:00 +9°C° 0 mm 2 mps 767 mmHg 45%
    11:00 +10°C° 0 mm 2 mps 766 mmHg 42%
    12:00 +12°C° 0 mm 2 mps 766 mmHg 38%
    13:00 +13°C° 0 mm 2 mps 766 mmHg 35%
    14:00 +13°C° 0 mm 2 mps 765 mmHg 36%
    15:00 +13°C° 0 mm 2 mps 765 mmHg 37%
    16:00 +13°C° 0 mm 2 mps 764 mmHg 39%
    17:00 +11°C° 0 mm 1 mps 764 mmHg 45%
    18:00 +9°C° 0 mm 1 mps 765 mmHg 52%
    19:00 +8°C° 0 mm 1 mps 765 mmHg 59%
    20:00 +7°C° 0 mm 1 mps 765 mmHg 61%
    21:00 +7°C° 0 mm 1 mps 765 mmHg 64%
    22:00 +7°C° 0 mm 1 mps 765 mmHg 66%
    23:00 +6°C° 0 mm 1 mps 764 mmHg 67%

    20 February, Wednesday

    Time Temperature Precipitation Wind Pressure Humidity
    00:00 +6°C° 0 mm 1 mps 764 mmHg 68%
    01:00 +6°C° 0 mm 1 mps 763 mmHg 68%
    02:00 +6°C° 0 mm 1 mps 763 mmHg 69%
    03:00 +6°C° 0 mm 1 mps 763 mmHg 69%
    04:00 +4°C° 0 mm 0 mps 763 mmHg 69%
    05:00 +4°C° 0 mm 0 mps 763 mmHg 70%
    06:00 +4°C° 0 mm 0 mps 763 mmHg 71%
    07:00 +4°C° 0 mm 0 mps 762 mmHg 73%
    08:00 +7°C° 0 mm 1 mps 762 mmHg 68%
    09:00 +8°C° 0 mm 2 mps 762 mmHg 63%
    10:00 +10°C° 0 mm 2 mps 762 mmHg 58%
    11:00 +10°C° 0 mm 3 mps 761 mmHg 57%
    12:00 +11°C° 0 mm 4 mps 761 mmHg 55%
    13:00 +12°C° 0 mm 4 mps 760 mmHg 53%
    14:00 +12°C° 0.1 mm 4 mps 759 mmHg 55%
    15:00 +11°C° 0.1 mm 4 mps 759 mmHg 57%
    16:00 +11°C° 0.1 mm 4 mps 758 mmHg 59%
    17:00 +10°C° 0 mm 3 mps 758 mmHg 63%
    18:00 +9°C° 0 mm 2 mps 758 mmHg 68%
    19:00 +8°C° 0 mm 2 mps 758 mmHg 72%
    20:00 +7°C° 0 mm 2 mps 758 mmHg 73%
    21:00 +7°C° 0 mm 2 mps 758 mmHg 73%
    22:00 +7°C° 0 mm 2 mps 758 mmHg 74%
    23:00 +6°C° 0 mm 2 mps 758 mmHg 74%

    21 February, Thursday

    Time Temperature Precipitation Wind Pressure Humidity
    00:00 +6°C° 0 mm 2 mps 758 mmHg 73%
    01:00 +5°C° 0 mm 2 mps 758 mmHg 73%
    02:00 +5°C° 0 mm 2 mps 758 mmHg 74%
    03:00 +6°C° 0 mm 1 mps 757 mmHg 75%
    04:00 +5°C° 0 mm 1 mps 757 mmHg 76%
    05:00 +5°C° 0 mm 1 mps 758 mmHg 76%
    06:00 +5°C° 0 mm 1 mps 758 mmHg 77%
    07:00 +4°C° 0 mm 1 mps 758 mmHg 78%
    08:00 +5°C° 0 mm 2 mps 758 mmHg 68%
    09:00 +7°C° 0 mm 3 mps 758 mmHg 58%
    10:00 +8°C° 0 mm 4 mps 758 mmHg 49%
    11:00 +10°C° 0 mm 4 mps 758 mmHg 44%
    12:00 +10°C° 0 mm 5 mps 757 mmHg 39%
    13:00 +11°C° 0 mm 6 mps 757 mmHg 35%
    14:00 +11°C° 0 mm 6 mps 757 mmHg 35%
    15:00 +11°C° 0 mm 6 mps 757 mmHg 35%
    16:00 +12°C° 0 mm 5 mps 757 mmHg 35%
    17:00 +10°C° 0 mm 4 mps 758 mmHg 40%
    18:00 +8°C° 0 mm 4 mps 759 mmHg 45%
    19:00 +7°C° 0 mm 3 mps 759 mmHg 49%
    20:00 +6°C° 0 mm 2 mps 760 mmHg 50%
    21:00 +6°C° 0 mm 2 mps 760 mmHg 51%
    22:00 +5°C° 0 mm 2 mps 761 mmHg 52%
    23:00 +5°C° 0 mm 2 mps 761 mmHg 55%

    22 February, Friday

    Time Temperature Precipitation Wind Pressure Humidity
    00:00 +4°C° 0 mm 2 mps 762 mmHg 59%
    01:00 +5°C° 0 mm 1 mps 762 mmHg 62%
    02:00 +5°C° 0 mm 1 mps 763 mmHg 64%
    03:00 +4°C° 0 mm 1 mps 763 mmHg 65%
    04:00 +4°C° 0 mm 1 mps 763 mmHg 66%
    05:00 +4°C° 0 mm 1 mps 764 mmHg 66%
    06:00 +4°C° 0 mm 1 mps 764 mmHg 65%
    07:00 +3°C° 0 mm 1 mps 765 mmHg 65%
    08:00 +6°C° 0 mm 1 mps 765 mmHg 56%
    09:00 +8°C° 0 mm 1 mps 766 mmHg 47%
    10:00 +11°C° 0 mm 1 mps 766 mmHg 38%
    11:00 +12°C° 0 mm 1 mps 766 mmHg 35%
    12:00 +13°C° 0 mm 1 mps 766 mmHg 31%
    13:00 +15°C° 0 mm 2 mps 766 mmHg 28%
    14:00 +15°C° 0 mm 2 mps 766 mmHg 29%
    15:00 +14°C° 0 mm 2 mps 766 mmHg 30%
    16:00 +14°C° 0 mm 2 mps 766 mmHg 31%
    17:00 +13°C° 0 mm 1 mps 767 mmHg 37%
    18:00 +11°C° 0 mm 1 mps 767 mmHg 43%
    19:00 +9°C° 0 mm 1 mps 767 mmHg 49%
    20:00 +9°C° 0 mm 1 mps 768 mmHg 52%
    21:00 +8°C° 0 mm 1 mps 768 mmHg 56%
    22:00 +7°C° 0 mm 0 mps 768 mmHg 59%
    23:00 +6°C° 0 mm 0 mps 768 mmHg 60%
    Show more